Back to catalog

OV1-9 R/B

AlivePO
NORAD 2622·ROCKET BODY·🇺🇸 United States

Launched Dec 11, 1966 from Vandenberg Space Force Base

Loading…

Next Passes (next 24 hours)

TLE

FreshSource: Space-Track

Epoch: Sep 14, 2026, 14:28 UTC

1 02622U 66111D   26257.60295775  .00000322  00000-0  14113-3 0  9990
2 02622  99.0933 139.8658 2219101 281.0420  55.0562 10.50062454254281

Track OV1-9 R/B in real time with AllMySat

Download on the App Store